Location: Forli
(44.2227°N, 12.0407°E)
Time: 14:15:40
(UTC+01:00)

ISS - Pass Details

Date: 24 December 2025
Orbit: 414 x 424 km, 51.6° (Epoch: 13 January)

Event Time Altitude Azimuth Distance (km) Brightness Sun altitude
Exits shadow 06:26:42 18° 330° (NNW) 1,113 -2.1 -13.5°
Maximum altitude 06:28:15 25° 10° (N) 903 -2.2 -13.2°
Drops below altitude 10° 06:31:08 10° 68° (ENE) 1,519 -0.2 -12.7°
Sets 06:33:29 0° 82° (E) 2,385 1.2 -12.3°
